Year,Month,Day,Hour,Minute,Value (Times are PST for windgust in km/hr)
2007,02,11,00,00,6.40
2007,02,11,00,01,4.80
2007,02,11,00,02,6.40
2007,02,11,00,03,3.20
2007,02,11,00,04,4.80
2007,02,11,00,05,1.60
2007,02,11,00,06,0.00
2007,02,11,00,07,1.60
2007,02,11,00,08,1.60
2007,02,11,00,09,1.60
2007,02,11,00,10,4.80
2007,02,11,00,11,1.60
2007,02,11,00,12,1.60
2007,02,11,01,02,8.10
2007,02,11,01,03,3.20
2007,02,11,01,04,3.20
2007,02,11,01,05,4.80
2007,02,11,01,06,4.80
2007,02,11,01,07,6.40
2007,02,11,01,08,3.20
2007,02,11,01,09,4.80
2007,02,11,01,10,4.80
2007,02,11,01,11,4.80
2007,02,11,01,12,11.30
2007,02,11,01,13,9.60
2007,02,11,01,14,1.60
2007,02,11,01,15,3.20
2007,02,11,01,16,6.40
2007,02,11,01,17,11.30
2007,02,11,01,18,1.60
2007,02,11,01,19,11.30
2007,02,11,01,20,11.30
2007,02,11,01,21,6.40
2007,02,11,01,22,4.80
2007,02,11,01,23,3.20
2007,02,11,01,24,6.40
2007,02,11,01,25,6.40
2007,02,11,01,26,3.20
2007,02,11,01,27,1.60
2007,02,11,01,28,3.20
2007,02,11,01,29,1.60
2007,02,11,01,30,9.60
2007,02,11,01,31,6.40
2007,02,11,01,32,6.40
2007,02,11,01,33,4.80
2007,02,11,01,34,4.80
2007,02,11,01,35,3.20
2007,02,11,01,36,3.20
2007,02,11,01,37,1.60
2007,02,11,01,38,4.80
2007,02,11,01,39,8.10
2007,02,11,01,40,8.10
2007,02,11,01,41,6.40
2007,02,11,01,42,4.80
2007,02,11,01,43,0.00
2007,02,11,01,44,3.20
2007,02,11,01,45,3.20
2007,02,11,01,46,4.80
2007,02,11,01,47,17.70
2007,02,11,01,48,6.40
2007,02,11,01,49,6.40
2007,02,11,01,50,3.20
2007,02,11,01,51,6.40
2007,02,11,01,52,6.40
2007,02,11,01,53,8.10
2007,02,11,01,54,4.80
2007,02,11,01,55,4.80
2007,02,11,01,56,4.80
2007,02,11,01,57,4.80
2007,02,11,01,58,8.10
2007,02,11,01,59,3.20
2007,02,11,02,00,0.00
2007,02,11,02,01,8.10
2007,02,11,02,02,3.20
2007,02,11,02,03,4.80
2007,02,11,02,04,3.20
2007,02,11,02,05,1.60
2007,02,11,02,06,3.20
2007,02,11,02,07,1.60
2007,02,11,02,08,3.20
2007,02,11,02,09,3.20
2007,02,11,02,10,1.60
2007,02,11,02,11,1.60
2007,02,11,02,12,1.60
2007,02,11,02,13,1.60
2007,02,11,02,14,3.20
2007,02,11,02,15,6.40
2007,02,11,02,16,4.80
2007,02,11,02,17,6.40
2007,02,11,02,18,4.80
2007,02,11,02,19,3.20
2007,02,11,02,20,4.80
2007,02,11,02,21,4.80
2007,02,11,02,22,8.10
2007,02,11,02,23,3.20
2007,02,11,02,24,1.60
2007,02,11,02,25,3.20
2007,02,11,02,26,1.60
2007,02,11,02,27,1.60
2007,02,11,02,28,1.60
2007,02,11,02,29,3.20
2007,02,11,02,30,4.80
2007,02,11,02,31,4.80
2007,02,11,02,32,3.20
2007,02,11,02,33,0.00
2007,02,11,02,34,8.10
2007,02,11,02,35,4.80
2007,02,11,02,36,6.40
2007,02,11,02,37,6.40
2007,02,11,02,38,3.20
2007,02,11,02,39,3.20
2007,02,11,02,40,4.80
2007,02,11,02,41,3.20
2007,02,11,02,42,8.10
2007,02,11,02,43,4.80
2007,02,11,02,44,1.60
2007,02,11,02,45,4.80
2007,02,11,02,46,3.20
2007,02,11,02,47,4.80
2007,02,11,02,48,4.80
2007,02,11,02,49,8.10
2007,02,11,02,50,3.20
2007,02,11,02,51,3.20
2007,02,11,02,52,6.40
2007,02,11,02,53,4.80
2007,02,11,02,54,6.40
2007,02,11,02,55,8.10
2007,02,11,02,56,6.40
2007,02,11,02,57,3.20
2007,02,11,02,58,6.40
2007,02,11,02,59,1.60
2007,02,11,03,00,1.60
2007,02,11,03,01,1.60
2007,02,11,03,02,3.20
2007,02,11,03,03,6.40
2007,02,11,03,04,4.80
2007,02,11,03,05,4.80
2007,02,11,03,06,4.80
2007,02,11,03,07,6.40
2007,02,11,03,08,4.80
2007,02,11,03,09,3.20
2007,02,11,03,10,3.20
2007,02,11,03,11,3.20
2007,02,11,03,12,1.60
2007,02,11,03,13,1.60
2007,02,11,03,14,6.40
2007,02,11,03,15,6.40
2007,02,11,03,16,1.60
2007,02,11,03,17,6.40
2007,02,11,03,18,3.20
2007,02,11,03,19,3.20
2007,02,11,03,20,3.20
2007,02,11,03,21,3.20
2007,02,11,03,22,4.80
2007,02,11,03,23,3.20
2007,02,11,03,24,3.20
2007,02,11,03,25,6.40
2007,02,11,03,26,3.20
2007,02,11,03,27,1.60
2007,02,11,03,28,6.40
2007,02,11,03,29,6.40
2007,02,11,03,30,3.20
2007,02,11,03,31,4.80
2007,02,11,03,32,4.80
2007,02,11,03,33,1.60
2007,02,11,03,34,4.80
2007,02,11,03,35,6.40
2007,02,11,03,36,1.60
2007,02,11,03,37,1.60
2007,02,11,03,38,4.80
2007,02,11,03,39,4.80
2007,02,11,03,40,4.80
2007,02,11,03,41,6.40
2007,02,11,03,42,6.40
2007,02,11,03,43,6.40
2007,02,11,03,44,6.40
2007,02,11,03,45,3.20
2007,02,11,03,46,3.20
2007,02,11,03,47,3.20
2007,02,11,03,48,6.40
2007,02,11,03,49,4.80
2007,02,11,03,50,4.80
2007,02,11,03,51,3.20
2007,02,11,03,52,3.20
2007,02,11,03,53,4.80
2007,02,11,03,54,3.20
2007,02,11,03,55,3.20
2007,02,11,03,56,3.20
2007,02,11,03,57,1.60
2007,02,11,03,58,4.80
2007,02,11,03,59,3.20
2007,02,11,04,00,6.40
2007,02,11,04,01,6.40
2007,02,11,04,02,1.60
2007,02,11,04,03,1.60
2007,02,11,04,04,1.60
2007,02,11,04,05,1.60
2007,02,11,04,06,1.60
2007,02,11,04,07,1.60
2007,02,11,04,08,1.60
2007,02,11,04,09,3.20
2007,02,11,04,10,1.60
2007,02,11,04,11,4.80
2007,02,11,04,12,3.20
2007,02,11,04,13,3.20
2007,02,11,04,14,3.20
2007,02,11,04,15,4.80
2007,02,11,04,16,12.90
2007,02,11,04,17,4.80
2007,02,11,04,18,8.10
2007,02,11,04,19,1.60
2007,02,11,04,20,4.80
2007,02,11,04,21,3.20
2007,02,11,04,22,1.60
2007,02,11,04,23,14.50
2007,02,11,04,24,9.60
2007,02,11,04,25,3.20
2007,02,11,04,26,6.40
2007,02,11,04,27,3.20
2007,02,11,04,28,6.40
2007,02,11,04,29,6.40
2007,02,11,04,30,3.20
2007,02,11,04,31,1.60
2007,02,11,04,32,4.80
2007,02,11,04,33,1.60
2007,02,11,04,34,4.80
2007,02,11,04,35,4.80
2007,02,11,04,36,3.20
2007,02,11,04,37,4.80
2007,02,11,04,38,9.60
2007,02,11,04,39,4.80
2007,02,11,04,40,3.20
2007,02,11,04,41,6.40
2007,02,11,04,42,3.20
2007,02,11,04,43,3.20
2007,02,11,04,44,6.40
2007,02,11,04,45,4.80
2007,02,11,04,46,6.40
2007,02,11,04,47,3.20
2007,02,11,04,48,4.80
2007,02,11,04,49,6.40
2007,02,11,04,50,4.80
2007,02,11,04,51,8.10
2007,02,11,04,52,4.80
2007,02,11,04,53,6.40
2007,02,11,04,54,4.80
2007,02,11,04,55,3.20
2007,02,11,04,56,3.20
2007,02,11,04,57,3.20
2007,02,11,04,58,4.80
2007,02,11,04,59,3.20
2007,02,11,05,00,3.20
2007,02,11,05,01,3.20
2007,02,11,05,02,4.80
2007,02,11,05,03,4.80
2007,02,11,05,04,1.60
2007,02,11,05,05,3.20
2007,02,11,05,06,1.60
2007,02,11,05,07,6.40
2007,02,11,05,08,4.80
2007,02,11,05,09,6.40
2007,02,11,05,10,6.40
2007,02,11,05,11,3.20
2007,02,11,05,12,3.20
2007,02,11,05,13,4.80
2007,02,11,05,14,8.10
2007,02,11,05,15,4.80
2007,02,11,05,16,4.80
2007,02,11,05,17,3.20
2007,02,11,05,18,4.80
2007,02,11,05,19,1.60
2007,02,11,05,20,6.40
2007,02,11,05,21,4.80
2007,02,11,05,22,4.80
2007,02,11,05,23,3.20
2007,02,11,05,24,6.40
2007,02,11,05,25,6.40
2007,02,11,05,26,4.80
2007,02,11,05,27,4.80
2007,02,11,05,28,4.80
2007,02,11,05,29,1.60
2007,02,11,05,30,3.20
2007,02,11,05,31,4.80
2007,02,11,05,32,3.20
2007,02,11,05,33,4.80
2007,02,11,05,34,4.80
2007,02,11,05,35,1.60
2007,02,11,05,36,4.80
2007,02,11,05,37,4.80
2007,02,11,05,38,3.20
2007,02,11,05,39,4.80
2007,02,11,05,40,3.20
2007,02,11,05,41,1.60
2007,02,11,05,42,4.80
2007,02,11,05,43,3.20
2007,02,11,05,44,3.20
2007,02,11,05,45,3.20
2007,02,11,05,46,6.40
2007,02,11,05,47,6.40
2007,02,11,05,48,6.40
2007,02,11,05,49,4.80
2007,02,11,05,50,1.60
2007,02,11,05,51,4.80
2007,02,11,05,52,6.40
2007,02,11,05,53,11.30
2007,02,11,05,54,3.20
2007,02,11,05,55,3.20
2007,02,11,05,56,3.20
2007,02,11,05,57,4.80
2007,02,11,05,58,3.20
2007,02,11,05,59,6.40
2007,02,11,06,00,1.60
2007,02,11,06,01,6.40
2007,02,11,06,02,3.20
2007,02,11,06,03,8.10
2007,02,11,06,04,3.20
2007,02,11,06,05,3.20
2007,02,11,06,06,1.60
2007,02,11,06,07,6.40
2007,02,11,06,08,3.20
2007,02,11,06,09,4.80
2007,02,11,06,10,6.40
2007,02,11,06,11,6.40
2007,02,11,06,12,3.20
2007,02,11,06,13,3.20
2007,02,11,06,14,3.20
2007,02,11,06,15,3.20
2007,02,11,06,16,4.80
2007,02,11,06,17,3.20
2007,02,11,06,18,1.60
2007,02,11,06,19,4.80
2007,02,11,06,20,4.80
2007,02,11,06,21,9.60
2007,02,11,06,22,6.40
2007,02,11,06,23,4.80
2007,02,11,06,24,6.40
2007,02,11,06,25,6.40
2007,02,11,06,26,6.40
2007,02,11,06,27,4.80
2007,02,11,06,28,6.40
2007,02,11,06,29,6.40
2007,02,11,06,30,8.10
2007,02,11,06,31,6.40
2007,02,11,06,32,1.60
2007,02,11,06,33,4.80
2007,02,11,06,34,3.20
2007,02,11,06,35,4.80
2007,02,11,06,36,3.20
2007,02,11,06,37,6.40
2007,02,11,06,38,6.40
2007,02,11,06,39,8.10
2007,02,11,06,40,8.10
2007,02,11,06,41,6.40
2007,02,11,06,42,3.20
2007,02,11,06,43,6.40
2007,02,11,06,44,9.60
2007,02,11,06,45,8.10
2007,02,11,06,46,6.40
2007,02,11,06,47,8.10
2007,02,11,06,48,3.20
2007,02,11,06,49,3.20
2007,02,11,06,50,6.40
2007,02,11,06,51,6.40
2007,02,11,06,52,3.20
2007,02,11,06,53,8.10
2007,02,11,06,54,8.10
2007,02,11,06,55,6.40
2007,02,11,06,56,4.80
2007,02,11,06,57,8.10
2007,02,11,06,58,6.40
2007,02,11,06,59,4.80
2007,02,11,07,00,11.30
2007,02,11,07,01,6.40
2007,02,11,07,02,6.40
2007,02,11,07,03,9.60
2007,02,11,07,04,6.40
2007,02,11,07,05,4.80
2007,02,11,07,06,4.80
2007,02,11,07,07,8.10
2007,02,11,07,08,6.40
2007,02,11,07,09,6.40
2007,02,11,07,10,4.80
2007,02,11,07,11,3.20
2007,02,11,07,12,3.20
2007,02,11,07,13,4.80
2007,02,11,07,14,4.80
2007,02,11,07,15,4.80
2007,02,11,07,16,3.20
2007,02,11,07,17,3.20
2007,02,11,07,18,3.20
2007,02,11,07,19,6.40
2007,02,11,07,20,4.80
2007,02,11,07,21,4.80
2007,02,11,07,22,4.80
2007,02,11,07,23,6.40
2007,02,11,07,24,3.20
2007,02,11,07,25,3.20
2007,02,11,07,26,4.80
2007,02,11,07,27,3.20
2007,02,11,07,28,6.40
2007,02,11,07,29,4.80
2007,02,11,07,30,3.20
2007,02,11,07,31,3.20
2007,02,11,07,32,4.80
2007,02,11,07,33,6.40
2007,02,11,07,34,4.80
2007,02,11,07,35,3.20
2007,02,11,07,36,3.20
2007,02,11,07,37,1.60
2007,02,11,07,38,3.20
2007,02,11,07,39,0.00
2007,02,11,07,40,3.20
2007,02,11,07,41,6.40
2007,02,11,07,42,3.20
2007,02,11,07,43,4.80
2007,02,11,07,44,3.20
2007,02,11,07,45,3.20
2007,02,11,07,46,6.40
2007,02,11,07,47,4.80
2007,02,11,07,48,1.60
2007,02,11,07,49,0.00
2007,02,11,07,50,1.60
2007,02,11,07,51,1.60
2007,02,11,07,52,1.60
2007,02,11,07,53,6.40
2007,02,11,07,54,3.20
2007,02,11,07,55,6.40
2007,02,11,07,56,4.80
2007,02,11,07,57,0.00
2007,02,11,07,58,1.60
2007,02,11,07,59,1.60
2007,02,11,08,00,3.20
2007,02,11,08,01,1.60
2007,02,11,08,02,3.20
2007,02,11,08,03,1.60
2007,02,11,08,04,3.20
2007,02,11,08,05,3.20
2007,02,11,08,06,6.40
2007,02,11,08,07,6.40
2007,02,11,08,08,4.80
2007,02,11,08,09,3.20
2007,02,11,08,10,3.20
2007,02,11,08,11,3.20
2007,02,11,08,12,3.20
2007,02,11,08,13,8.10
2007,02,11,08,14,9.60
2007,02,11,08,15,4.80
2007,02,11,08,16,6.40
2007,02,11,08,17,1.60
2007,02,11,08,18,1.60
2007,02,11,08,19,3.20
2007,02,11,08,20,1.60
2007,02,11,08,21,1.60
2007,02,11,08,22,4.80
2007,02,11,08,23,3.20
2007,02,11,08,24,3.20
2007,02,11,08,25,4.80
2007,02,11,08,26,3.20
2007,02,11,08,27,3.20
2007,02,11,08,28,3.20
2007,02,11,08,29,3.20
2007,02,11,08,30,4.80
2007,02,11,08,31,4.80
2007,02,11,08,32,1.60
2007,02,11,08,33,3.20
2007,02,11,08,34,6.40
2007,02,11,08,35,3.20
2007,02,11,08,36,4.80
2007,02,11,08,37,3.20
2007,02,11,08,38,4.80
2007,02,11,08,39,6.40
2007,02,11,08,40,4.80
2007,02,11,08,41,3.20
2007,02,11,08,42,1.60
2007,02,11,08,43,1.60
2007,02,11,08,44,1.60
2007,02,11,08,45,1.60
2007,02,11,08,46,4.80
2007,02,11,08,47,4.80
2007,02,11,08,48,3.20
2007,02,11,08,49,4.80
2007,02,11,08,50,8.10
2007,02,11,08,51,4.80
2007,02,11,08,52,4.80
2007,02,11,08,53,6.40
2007,02,11,08,54,1.60
2007,02,11,08,55,6.40
2007,02,11,08,56,4.80
2007,02,11,08,57,6.40
2007,02,11,08,58,6.40
2007,02,11,08,59,4.80
2007,02,11,09,00,6.40
2007,02,11,09,01,6.40
2007,02,11,09,02,3.20
2007,02,11,09,03,8.10
2007,02,11,09,04,8.10
2007,02,11,09,05,4.80
2007,02,11,09,06,8.10
2007,02,11,09,07,4.80
2007,02,11,09,08,11.30
2007,02,11,09,09,11.30
2007,02,11,09,10,9.60
2007,02,11,09,11,9.60
2007,02,11,09,12,8.10
2007,02,11,09,13,4.80
2007,02,11,09,14,1.60
2007,02,11,09,15,6.40
2007,02,11,09,16,6.40
2007,02,11,09,17,8.10
2007,02,11,09,18,6.40
2007,02,11,09,19,4.80
2007,02,11,09,20,3.20
2007,02,11,09,21,3.20
2007,02,11,09,22,9.60
2007,02,11,09,23,9.60
2007,02,11,09,24,4.80
2007,02,11,09,25,11.30
2007,02,11,09,26,3.20
2007,02,11,09,27,8.10
2007,02,11,09,28,8.10
2007,02,11,09,29,8.10
2007,02,11,09,30,9.60
2007,02,11,09,31,4.80
2007,02,11,09,32,4.80
2007,02,11,09,33,4.80
2007,02,11,09,34,6.40
2007,02,11,09,35,3.20
2007,02,11,09,36,8.10
2007,02,11,09,37,9.60
2007,02,11,09,38,14.50
2007,02,11,09,39,9.60
2007,02,11,09,40,6.40
2007,02,11,09,41,9.60
2007,02,11,09,42,12.90
2007,02,11,09,43,9.60
2007,02,11,09,44,11.30
2007,02,11,09,45,6.40
2007,02,11,09,46,4.80
2007,02,11,09,47,8.10
2007,02,11,09,48,4.80
2007,02,11,09,49,6.40
2007,02,11,09,50,8.10
2007,02,11,09,51,9.60
2007,02,11,09,52,9.60
2007,02,11,09,53,9.60
2007,02,11,09,54,9.60
2007,02,11,09,55,9.60
2007,02,11,09,56,4.80
2007,02,11,09,57,11.30
2007,02,11,09,58,6.40
2007,02,11,09,59,14.50
2007,02,11,10,00,8.10
2007,02,11,10,01,6.40
2007,02,11,10,02,4.80
2007,02,11,10,03,11.30
2007,02,11,10,04,11.30
2007,02,11,10,05,8.10
2007,02,11,10,06,9.60
2007,02,11,10,07,8.10
2007,02,11,10,08,14.50
2007,02,11,10,09,8.10
2007,02,11,10,10,4.80
2007,02,11,10,11,3.20
2007,02,11,10,12,4.80
2007,02,11,10,13,11.30
2007,02,11,10,14,8.10
2007,02,11,10,15,6.40
2007,02,11,10,16,11.30
2007,02,11,10,17,9.60
2007,02,11,10,18,3.20
2007,02,11,10,19,6.40
2007,02,11,10,20,4.80
2007,02,11,10,21,1.60
2007,02,11,10,22,1.60
2007,02,11,10,23,4.80
2007,02,11,10,24,3.20
2007,02,11,10,25,9.60
2007,02,11,10,26,11.30
2007,02,11,10,27,6.40
2007,02,11,10,28,11.30
2007,02,11,10,29,4.80
2007,02,11,10,30,8.10
2007,02,11,10,31,9.60
2007,02,11,10,32,6.40
2007,02,11,10,33,8.10
2007,02,11,10,34,6.40
2007,02,11,10,35,14.50
2007,02,11,10,36,9.60
2007,02,11,10,37,16.10
2007,02,11,10,38,11.30
2007,02,11,10,39,8.10
2007,02,11,10,40,11.30
2007,02,11,10,41,9.60
2007,02,11,10,42,6.40
2007,02,11,10,43,11.30
2007,02,11,10,44,11.30
2007,02,11,10,45,9.60
2007,02,11,10,46,6.40
2007,02,11,10,47,11.30
2007,02,11,10,48,9.60
2007,02,11,10,49,8.10
2007,02,11,10,50,8.10
2007,02,11,10,51,14.50
2007,02,11,10,52,4.80
2007,02,11,10,53,8.10
2007,02,11,10,54,9.60
2007,02,11,10,55,16.10
2007,02,11,10,56,9.60
2007,02,11,10,57,8.10
2007,02,11,10,58,11.30
2007,02,11,10,59,11.30
2007,02,11,11,00,8.10
2007,02,11,11,01,9.60
2007,02,11,11,02,11.30
2007,02,11,11,03,17.70
2007,02,11,11,04,11.30
2007,02,11,11,05,11.30
2007,02,11,11,06,9.60
2007,02,11,11,07,9.60
2007,02,11,11,08,16.10
2007,02,11,11,09,11.30
2007,02,11,11,10,3.20
2007,02,11,11,11,6.40
2007,02,11,11,12,8.10
2007,02,11,11,13,9.60
2007,02,11,11,14,9.60
2007,02,11,11,15,3.20
2007,02,11,11,16,8.10
2007,02,11,11,17,8.10
2007,02,11,11,18,6.40
2007,02,11,11,19,6.40
2007,02,11,11,20,3.20
2007,02,11,11,21,6.40
2007,02,11,11,22,3.20
2007,02,11,11,23,6.40
2007,02,11,11,24,6.40
2007,02,11,11,25,6.40
2007,02,11,11,26,4.80
2007,02,11,11,27,4.80
2007,02,11,11,28,4.80
2007,02,11,11,29,3.20
2007,02,11,11,30,3.20
2007,02,11,11,31,3.20
2007,02,11,11,32,0.00
2007,02,11,11,33,1.60
2007,02,11,11,34,1.60
2007,02,11,11,35,1.60
2007,02,11,11,36,1.60
2007,02,11,11,37,4.80
2007,02,11,11,38,6.40
2007,02,11,11,39,6.40
2007,02,11,11,40,6.40
2007,02,11,11,41,6.40
2007,02,11,11,42,4.80
2007,02,11,11,43,4.80
2007,02,11,11,44,3.20
2007,02,11,11,45,6.40
2007,02,11,11,46,6.40
2007,02,11,11,47,3.20
2007,02,11,11,48,1.60
2007,02,11,11,49,1.60
2007,02,11,11,50,3.20
2007,02,11,11,51,6.40
2007,02,11,11,52,4.80
2007,02,11,11,53,1.60
2007,02,11,11,54,0.00
2007,02,11,11,55,1.60
2007,02,11,11,56,3.20
2007,02,11,11,57,4.80
2007,02,11,11,58,6.40
2007,02,11,11,59,6.40
2007,02,11,12,00,3.20
2007,02,11,12,01,1.60
2007,02,11,12,02,1.60
2007,02,11,12,03,3.20
2007,02,11,12,04,3.20
2007,02,11,12,05,4.80
2007,02,11,12,06,3.20
2007,02,11,12,07,1.60
2007,02,11,12,08,6.40
2007,02,11,12,09,4.80
2007,02,11,12,10,6.40
2007,02,11,12,11,6.40
2007,02,11,12,12,3.20
2007,02,11,12,13,1.60
2007,02,11,12,14,3.20
2007,02,11,12,15,0.00
2007,02,11,12,16,3.20
2007,02,11,12,17,9.60
2007,02,11,12,18,6.40
2007,02,11,12,19,3.20
2007,02,11,12,20,3.20
2007,02,11,12,21,3.20
2007,02,11,12,22,0.00
2007,02,11,12,23,0.00
2007,02,11,12,24,1.60
2007,02,11,12,25,6.40
2007,02,11,12,26,6.40
2007,02,11,12,27,3.20
2007,02,11,12,28,6.40
2007,02,11,12,29,4.80
2007,02,11,12,30,4.80
2007,02,11,12,31,6.40
2007,02,11,12,32,3.20
2007,02,11,12,33,6.40
2007,02,11,12,34,3.20
2007,02,11,12,35,1.60
2007,02,11,12,36,6.40
2007,02,11,12,37,6.40
2007,02,11,12,38,6.40
2007,02,11,12,39,9.60
2007,02,11,12,40,9.60
2007,02,11,12,41,4.80
2007,02,11,12,42,1.60
2007,02,11,12,43,4.80
2007,02,11,12,44,8.10
2007,02,11,12,45,8.10
2007,02,11,12,46,4.80
2007,02,11,12,47,8.10
2007,02,11,12,48,6.40
2007,02,11,12,49,4.80
2007,02,11,12,50,6.40
2007,02,11,12,51,6.40
2007,02,11,12,52,1.60
2007,02,11,12,53,3.20
2007,02,11,12,54,6.40
2007,02,11,12,55,4.80
2007,02,11,12,56,1.60
2007,02,11,12,57,0.00
2007,02,11,12,58,0.00
2007,02,11,12,59,4.80
2007,02,11,13,00,9.60
2007,02,11,13,01,8.10
2007,02,11,13,02,9.60
2007,02,11,13,03,3.20
2007,02,11,13,04,3.20
2007,02,11,13,05,3.20
2007,02,11,13,06,1.60
2007,02,11,13,07,3.20
2007,02,11,13,08,1.60
2007,02,11,13,09,4.80
2007,02,11,13,10,3.20
2007,02,11,13,11,3.20
2007,02,11,13,12,4.80
2007,02,11,13,13,4.80
2007,02,11,13,14,3.20
2007,02,11,13,15,1.60
2007,02,11,13,16,3.20
2007,02,11,13,17,3.20
2007,02,11,13,18,0.00
2007,02,11,13,19,3.20
2007,02,11,13,20,1.60
2007,02,11,13,21,1.60
2007,02,11,13,22,8.10
2007,02,11,13,23,6.40
2007,02,11,13,24,4.80
2007,02,11,13,25,1.60
2007,02,11,13,26,1.60
2007,02,11,13,27,1.60
2007,02,11,13,28,1.60
2007,02,11,13,29,3.20
2007,02,11,13,30,3.20
2007,02,11,13,31,4.80
2007,02,11,13,32,4.80
2007,02,11,13,33,1.60
2007,02,11,13,34,6.40
2007,02,11,13,35,3.20
2007,02,11,13,36,3.20
2007,02,11,13,37,3.20
2007,02,11,13,38,3.20
2007,02,11,13,39,1.60
2007,02,11,13,40,4.80
2007,02,11,13,41,6.40
2007,02,11,13,42,3.20
2007,02,11,13,43,8.10
2007,02,11,13,44,4.80
2007,02,11,13,45,3.20
2007,02,11,13,46,6.40
2007,02,11,13,47,4.80
2007,02,11,13,48,4.80
2007,02,11,13,49,1.60
2007,02,11,13,50,3.20
2007,02,11,13,51,6.40
2007,02,11,13,52,4.80
2007,02,11,13,53,6.40
2007,02,11,13,54,4.80
2007,02,11,13,55,3.20
2007,02,11,13,56,3.20
2007,02,11,13,57,3.20
2007,02,11,13,58,4.80
2007,02,11,13,59,1.60
2007,02,11,14,00,3.20
2007,02,11,14,01,4.80
2007,02,11,14,02,1.60
2007,02,11,14,03,1.60
2007,02,11,14,04,6.40
2007,02,11,14,05,4.80
2007,02,11,14,06,6.40
2007,02,11,14,07,3.20
2007,02,11,14,08,3.20
2007,02,11,14,09,0.00
2007,02,11,14,10,1.60
2007,02,11,14,11,4.80
2007,02,11,14,12,4.80
2007,02,11,14,13,1.60
2007,02,11,14,14,1.60
2007,02,11,14,15,3.20
2007,02,11,14,16,3.20
2007,02,11,14,17,4.80
2007,02,11,14,18,3.20
2007,02,11,14,19,4.80
2007,02,11,14,20,1.60
2007,02,11,14,21,1.60
2007,02,11,14,22,3.20
2007,02,11,14,23,8.10
2007,02,11,14,24,4.80
2007,02,11,14,25,6.40
2007,02,11,14,26,6.40
2007,02,11,14,27,6.40
2007,02,11,14,28,6.40
2007,02,11,14,29,4.80
2007,02,11,14,30,4.80
2007,02,11,14,31,4.80
2007,02,11,14,32,3.20
2007,02,11,14,33,4.80
2007,02,11,14,34,1.60
2007,02,11,14,35,1.60
2007,02,11,14,36,3.20
2007,02,11,14,37,1.60
2007,02,11,14,38,8.10
2007,02,11,14,39,6.40
2007,02,11,14,40,3.20
2007,02,11,14,41,3.20
2007,02,11,14,42,3.20
2007,02,11,14,43,3.20
2007,02,11,14,44,3.20
2007,02,11,14,45,1.60
2007,02,11,14,46,8.10
2007,02,11,14,47,4.80
2007,02,11,14,48,4.80
2007,02,11,14,49,3.20
2007,02,11,14,50,1.60
2007,02,11,14,51,3.20
2007,02,11,14,52,1.60
2007,02,11,14,53,4.80
2007,02,11,14,54,4.80
2007,02,11,14,55,4.80
2007,02,11,14,56,3.20
2007,02,11,14,57,4.80
2007,02,11,14,58,1.60
2007,02,11,14,59,1.60
2007,02,11,15,00,6.40
2007,02,11,15,01,3.20
2007,02,11,15,02,9.60
2007,02,11,15,03,9.60
2007,02,11,15,04,8.10
2007,02,11,15,05,3.20
2007,02,11,15,06,1.60
2007,02,11,15,07,0.00
2007,02,11,15,08,1.60
2007,02,11,15,09,0.00
2007,02,11,15,10,1.60
2007,02,11,15,11,1.60
2007,02,11,15,12,1.60
2007,02,11,15,13,1.60
2007,02,11,15,14,3.20
2007,02,11,15,15,3.20
2007,02,11,15,16,1.60
2007,02,11,15,17,1.60
2007,02,11,15,18,3.20
2007,02,11,15,19,3.20
2007,02,11,15,20,3.20
2007,02,11,15,21,4.80
2007,02,11,15,22,3.20
2007,02,11,15,23,4.80
2007,02,11,15,24,1.60
2007,02,11,15,25,3.20
2007,02,11,15,26,1.60
2007,02,11,15,27,3.20
2007,02,11,15,28,1.60
2007,02,11,15,29,3.20
2007,02,11,15,30,6.40
2007,02,11,15,31,6.40
2007,02,11,15,32,8.10
2007,02,11,15,33,4.80
2007,02,11,15,34,6.40
2007,02,11,15,35,6.40
2007,02,11,15,36,3.20
2007,02,11,15,37,6.40
2007,02,11,15,38,3.20
2007,02,11,15,39,6.40
2007,02,11,15,40,8.10
2007,02,11,15,41,4.80
2007,02,11,15,42,6.40
2007,02,11,15,43,8.10
2007,02,11,15,44,6.40
2007,02,11,15,45,3.20
2007,02,11,15,46,4.80
2007,02,11,15,47,3.20
2007,02,11,15,48,3.20
2007,02,11,15,49,1.60
2007,02,11,15,50,1.60
2007,02,11,15,51,1.60
2007,02,11,15,52,0.00
2007,02,11,15,53,3.20
2007,02,11,15,54,1.60
2007,02,11,15,55,1.60
2007,02,11,15,56,1.60
2007,02,11,15,57,4.80
2007,02,11,15,58,6.40
2007,02,11,15,59,6.40
2007,02,11,16,00,8.10
2007,02,11,16,01,4.80
2007,02,11,16,02,3.20
2007,02,11,16,03,1.60
2007,02,11,16,04,0.00
2007,02,11,16,05,0.00
2007,02,11,16,06,1.60
2007,02,11,16,07,1.60
2007,02,11,16,08,0.00
2007,02,11,16,09,1.60
2007,02,11,16,10,1.60
2007,02,11,16,11,1.60
2007,02,11,16,12,1.60
2007,02,11,16,13,1.60
2007,02,11,16,14,0.00
2007,02,11,16,15,0.00
2007,02,11,16,16,1.60
2007,02,11,16,17,1.60
2007,02,11,16,18,0.00
2007,02,11,16,19,0.00
2007,02,11,16,20,0.00
2007,02,11,16,21,0.00
2007,02,11,16,22,0.00
2007,02,11,16,23,1.60
2007,02,11,16,24,1.60
2007,02,11,16,25,1.60
2007,02,11,16,26,0.00
2007,02,11,16,27,0.00
2007,02,11,16,28,0.00
2007,02,11,16,29,0.00
2007,02,11,16,30,0.00
2007,02,11,16,31,0.00
2007,02,11,16,32,1.60
2007,02,11,16,33,0.00
2007,02,11,16,34,1.60
2007,02,11,16,35,1.60
2007,02,11,16,36,1.60
2007,02,11,16,37,3.20
2007,02,11,16,38,3.20
2007,02,11,16,39,1.60
2007,02,11,16,40,1.60
2007,02,11,16,41,3.20
2007,02,11,16,42,1.60
2007,02,11,16,43,1.60
2007,02,11,16,44,1.60
2007,02,11,16,45,0.00
2007,02,11,16,46,1.60
2007,02,11,16,47,0.00
2007,02,11,16,48,1.60
2007,02,11,16,49,1.60
2007,02,11,16,50,0.00
2007,02,11,16,51,0.00
2007,02,11,16,52,0.00
2007,02,11,16,53,1.60
2007,02,11,16,54,3.20
2007,02,11,16,55,3.20
2007,02,11,16,56,3.20
2007,02,11,16,57,1.60
2007,02,11,16,58,4.80
2007,02,11,16,59,3.20
2007,02,11,17,00,6.40
2007,02,11,17,01,1.60
2007,02,11,17,02,0.00
2007,02,11,17,03,1.60
2007,02,11,17,04,0.00
2007,02,11,17,05,0.00
2007,02,11,17,06,0.00
2007,02,11,17,07,0.00
2007,02,11,17,08,0.00
2007,02,11,17,09,0.00
2007,02,11,17,10,0.00
2007,02,11,17,11,0.00
2007,02,11,17,12,0.00
2007,02,11,17,13,0.00
2007,02,11,17,14,0.00
2007,02,11,17,15,0.00
2007,02,11,17,16,0.00
2007,02,11,17,17,0.00
2007,02,11,17,18,0.00
2007,02,11,17,19,0.00
2007,02,11,17,20,0.00
2007,02,11,17,21,0.00
2007,02,11,17,22,0.00
2007,02,11,17,23,1.60
2007,02,11,17,24,1.60
2007,02,11,17,25,1.60
2007,02,11,17,26,0.00
2007,02,11,17,27,0.00
2007,02,11,17,28,0.00
2007,02,11,17,29,0.00
2007,02,11,17,30,0.00
2007,02,11,17,31,0.00
2007,02,11,17,32,0.00
2007,02,11,17,33,0.00
2007,02,11,17,34,0.00
2007,02,11,17,35,0.00
2007,02,11,17,36,0.00
2007,02,11,17,37,0.00
2007,02,11,17,38,0.00
2007,02,11,17,39,0.00
2007,02,11,17,40,0.00
2007,02,11,17,41,0.00
2007,02,11,17,42,0.00
2007,02,11,17,43,0.00
2007,02,11,17,44,0.00
2007,02,11,17,45,0.00
2007,02,11,17,46,0.00
2007,02,11,17,47,0.00
2007,02,11,17,48,0.00
2007,02,11,17,49,0.00
2007,02,11,17,50,0.00
2007,02,11,17,51,0.00
2007,02,11,17,52,0.00
2007,02,11,17,53,0.00
2007,02,11,17,54,0.00
2007,02,11,17,55,0.00
2007,02,11,17,56,0.00
2007,02,11,17,57,0.00
2007,02,11,17,58,0.00
2007,02,11,17,59,0.00
2007,02,11,18,00,0.00
2007,02,11,18,01,0.00
2007,02,11,18,02,0.00
2007,02,11,18,03,0.00
2007,02,11,18,04,0.00
2007,02,11,18,05,0.00
2007,02,11,18,06,0.00
2007,02,11,18,07,0.00
2007,02,11,18,08,0.00
2007,02,11,18,09,0.00
2007,02,11,18,10,0.00
2007,02,11,18,11,0.00
2007,02,11,18,12,0.00
2007,02,11,18,13,0.00
2007,02,11,18,14,0.00
2007,02,11,18,15,1.60
2007,02,11,18,16,1.60
2007,02,11,18,17,0.00
2007,02,11,18,18,1.60
2007,02,11,18,19,1.60
2007,02,11,18,20,1.60
2007,02,11,18,21,1.60
2007,02,11,18,22,0.00
2007,02,11,18,23,3.20
2007,02,11,18,24,1.60
2007,02,11,18,25,1.60
2007,02,11,18,26,1.60
2007,02,11,18,27,3.20
2007,02,11,18,28,1.60
2007,02,11,18,29,1.60
2007,02,11,18,30,1.60
2007,02,11,18,31,1.60
2007,02,11,18,32,1.60
2007,02,11,18,33,0.00
2007,02,11,18,34,0.00
2007,02,11,18,35,1.60
2007,02,11,18,36,1.60
2007,02,11,18,37,1.60
2007,02,11,18,38,0.00
2007,02,11,18,39,1.60
2007,02,11,18,40,1.60
2007,02,11,18,41,1.60
2007,02,11,18,42,1.60
2007,02,11,18,43,1.60
2007,02,11,18,44,3.20
2007,02,11,18,45,1.60
2007,02,11,18,46,1.60
2007,02,11,18,47,4.80
2007,02,11,18,48,3.20
2007,02,11,18,49,3.20
2007,02,11,18,50,1.60
2007,02,11,18,51,0.00
2007,02,11,18,52,0.00
2007,02,11,18,53,1.60